Powrót do katalogu

FENGYUN 1C DEB

AktywnyPO
NORAD 37077·DEBRIS·🇨🇳 China

Wystrzelony May 10, 1999 z Taiyuan Satellite Launch Center

Loading…

Następne Przeloty (najbliższe 24 godziny)

TLE

ŚwieżeSource: Space-Track

Epoka: Sep 14, 2026, 05:32 UTC

1 37077U 99025EFM 26257.23098706  .00000741  00000-0  23039-3 0  9998
2 37077  99.0211 352.8110 0094482 233.3489 125.8985 14.41800660889246

Śledź FENGYUN 1C DEB w czasie rzeczywistym z AllMySat

Download on the App Store